Location: ???????
(55.4362°N, 38.1183°E)
Time: 18:19:45
(UTC+00:00)

SL-16 R/B - Pass Details

Date: 17 June 2021
Orbit: 842 x 847 km, 71.0° (Epoch: 29 July)

Event Time Altitude Azimuth Distance (km) Brightness Sun altitude
Exits shadow 23:06:17 - 231° (SW) 2,769 4.3 -8.5°
Reaches altitude 10° 23:07:06 10° 233° (SW) 2,466 4.1 -8.4°
Maximum altitude 23:12:39 56° 312° (NW) 1,006 2.8 -8.1°
Drops below altitude 10° 23:18:15 10° 30° (NNE) 2,476 6.4 -7.8°
Sets 23:20:46 0° 35° (NE) 3,414 7.6 -7.6°
